Cherry Point, NC

9:17 PM EST on February 11, 2016 (GMT -0500)
Cherry Point Marine Corps Air Station

Weather History for KNKT - September, 2013

Change the Weather History Date:

Monday, September 2, 2013

  Actual Average Record
Temperature  
Mean Temperature 79 °F -  
Max Temperature 87 °F 82 °F 93 °F (2014)
Min Temperature 72 °F 68 °F 59 °F (2008)
Cooling Degree Days 14    
Growing Degree Days 29 (Base 50)    
Moisture  
Dew Point 74 °F    
Average Humidity 85    
Maximum Humidity 97    
Minimum Humidity 72    
Precipitation  
Precipitation 1.38 in - - ()
Sea Level Pressure  
Sea Level Pressure 29.88 in    
Wind  
Wind Speed 10 mph (SW)    
Max Wind Speed 20 mph    
Max Gust Speed 30 mph    
Visibility 8 miles    
Events Rain , Thunderstorm    
Averages and records for this station are not official NWS values.
T = Trace of Precipitation, MM = Missing Value Source: NWS Daily Summary

Daily Weather History Graph

Daily Weather History Graph

Search for Another Location

Airport or City:

Trip Planner

Search our weather history database for the weather conditions in past years. The results will help you decide how hot, cold, wet, or windy it might be!

Date:

Astronomy

Sep. 02, 2013 Rise Set
Actual Time 6:41 AM EDT 7:32 PM EDT
Civil Twilight 6:15 AM EDT 7:58 PM EDT
Nautical Twilight 5:44 AM EDT 8:28 PM EDT
Astronomical Twilight 5:13 AM EDT 8:59 PM EDT
Moon 4:00 AM EDT (9/2) 5:41 PM EDT (9/2)
Length of Visible Light 13h 42m
Length of Day
12h 51m
Waning Crescent, 8% of the Moon is Illuminated
Sep 2
Waning Crescent
Sep 5
New
Sep 12
First Quarter
Sep 19
Full
Sep 26
Last Quarter

Hourly Weather History & Observations

Time (EDT) Temp. Heat Index Dew Point Humidity Pressure Visibility Wind Dir Wind Speed Gust Speed Precip Events Conditions
12:08 AM 80.1 °F 85.1 °F 75.0 °F 85% 29.91 in 10.0 mi SW 10.4 mph 20.7 mph N/A   Mostly Cloudy
12:21 AM 80.1 °F 85.1 °F 75.0 °F 85% 29.90 in 10.0 mi SSW 12.7 mph 20.7 mph N/A   Scattered Clouds
12:54 AM 80.1 °F 85.1 °F 75.0 °F 85% 29.90 in 9.0 mi SW 11.5 mph - N/A   Mostly Cloudy
1:08 AM 80.1 °F 85.1 °F 75.0 °F 85% 29.90 in 9.0 mi SW 11.5 mph 20.7 mph N/A   Mostly Cloudy
1:54 AM 80.1 °F 84.5 °F 73.9 °F 81% 29.90 in 9.0 mi SW 10.4 mph - N/A   Mostly Cloudy
2:41 AM 79.0 °F - 73.9 °F 84% 29.88 in 9.0 mi SW 5.8 mph - N/A   Mostly Cloudy
2:54 AM 79.0 °F - 75.0 °F 88% 29.87 in 8.0 mi WSW 6.9 mph - N/A   Mostly Cloudy
3:24 AM 78.1 °F - 73.9 °F 87% 29.87 in 8.0 mi SW 6.9 mph - N/A   Scattered Clouds
3:54 AM 78.1 °F - 73.0 °F 84% 29.86 in 8.0 mi SW 8.1 mph - N/A   Scattered Clouds
4:54 AM 78.1 °F - 73.9 °F 87% 29.86 in 8.0 mi SW 9.2 mph - N/A   Scattered Clouds
5:46 AM 78.1 °F - 73.9 °F 87% 29.88 in 7.0 mi WSW 11.5 mph - N/A Thunderstorm Thunderstorm
5:54 AM 78.1 °F - 73.9 °F 87% 29.87 in 7.0 mi SW 9.2 mph - N/A   Mostly Cloudy
6:30 AM 78.1 °F - 73.0 °F 84% 29.89 in 6.0 mi WSW 13.8 mph 19.6 mph 0.00 in Rain , Thunderstorm Light Thunderstorms and Rain
6:42 AM 75.9 °F - 71.1 °F 85% 29.90 in 6.0 mi West 11.5 mph 20.7 mph 0.00 in Rain , Thunderstorm Light Thunderstorms and Rain
6:54 AM 75.0 °F - 71.1 °F 87% 29.91 in 3.0 mi WNW 13.8 mph 21.9 mph 0.03 in Rain , Thunderstorm Heavy Thunderstorms and Rain
6:56 AM 75.0 °F - 71.1 °F 87% 29.92 in 0.8 mi NW 13.8 mph 21.9 mph 0.07 in Rain , Thunderstorm Heavy Thunderstorms and Rain
7:03 AM 73.9 °F - 71.1 °F 91% 29.93 in 0.8 mi West 10.4 mph 20.7 mph 0.28 in Rain , Thunderstorm Heavy Thunderstorms and Rain
7:31 AM 72.0 °F - 70.0 °F 93% 29.91 in 1.0 mi ESE 5.8 mph - 1.23 in Rain , Thunderstorm Heavy Thunderstorms and Rain
7:54 AM 72.0 °F - 71.1 °F 97% 29.91 in 5.0 mi SSE 9.2 mph - 1.26 in Rain , Thunderstorm Light Thunderstorms and Rain
8:01 AM 72.0 °F - 70.0 °F 93% 29.92 in 8.0 mi South 10.4 mph - 0.00 in Rain , Thunderstorm Light Thunderstorms and Rain
8:54 AM 73.9 °F - 71.1 °F 91% 29.90 in 10.0 mi SW 6.9 mph - 0.02 in Thunderstorm Thunderstorm
9:14 AM 75.0 °F - 72.0 °F 90% 29.91 in 9.0 mi South 5.8 mph - N/A Thunderstorm Partly Cloudy
9:38 AM 75.9 °F - 73.0 °F 91% 29.92 in 9.0 mi WSW 5.8 mph - N/A   Overcast
9:54 AM 75.9 °F - 73.9 °F 94% 29.92 in 8.0 mi SSW 3.5 mph - N/A   Overcast
10:29 AM 80.1 °F 85.1 °F 75.0 °F 85% 29.92 in 8.0 mi WSW 6.9 mph - N/A   Mostly Cloudy
10:54 AM 81.0 °F 86.7 °F 75.0 °F 82% 29.91 in 6.0 mi SW 12.7 mph - N/A   Haze
11:54 AM 84.0 °F 92.6 °F 75.9 °F 76% 29.90 in 8.0 mi SW 8.1 mph - N/A   Mostly Cloudy
12:54 PM 84.9 °F 93.3 °F 75.0 °F 72% 29.88 in 9.0 mi SW 10.4 mph - N/A   Mostly Cloudy
1:25 PM 84.9 °F 95.3 °F 77.0 °F 77% 29.89 in 8.0 mi SSW 9.2 mph - N/A Thunderstorm Mostly Cloudy
1:50 PM 78.8 °F - 71.6 °F 78% 29.88 in 5.0 mi SW 19.6 mph 29.9 mph 0.02 in Rain , Thunderstorm Light Thunderstorms and Rain
1:54 PM 75.9 °F - 71.1 °F 85% 29.87 in 3.0 mi SSW 15.0 mph 29.9 mph 0.04 in Rain , Thunderstorm Heavy Thunderstorms and Rain
2:54 PM 82.0 °F 88.6 °F 75.0 °F 79% 29.86 in 10.0 mi South 6.9 mph - 0.03 in Thunderstorm Mostly Cloudy
3:54 PM 86.0 °F 96.0 °F 75.9 °F 72% 29.84 in 10.0 mi South 10.4 mph - N/A Thunderstorm Mostly Cloudy
4:16 PM 82.9 °F 90.8 °F 75.9 °F 79% 29.85 in 9.0 mi SSW 9.2 mph - N/A   Scattered Clouds
4:54 PM 82.9 °F 90.8 °F 75.9 °F 79% 29.84 in 9.0 mi SSW 6.9 mph - 0.00 in   Scattered Clouds
5:54 PM 82.0 °F 89.4 °F 75.9 °F 82% 29.83 in 8.0 mi South 4.6 mph - N/A   Clear
6:54 PM 81.0 °F 87.3 °F 75.9 °F 85% 29.82 in 8.0 mi South 9.2 mph - N/A   Clear
7:54 PM 80.1 °F 85.1 °F 75.0 °F 85% 29.83 in 10.0 mi SSW 8.1 mph - N/A   Scattered Clouds
8:54 PM 80.1 °F 85.1 °F 75.0 °F 85% 29.84 in 10.0 mi SSW 11.5 mph - N/A   Clear
9:54 PM 80.1 °F 85.4 °F 75.9 °F 87% 29.86 in 8.0 mi SW 6.9 mph - N/A   Clear
10:54 PM 79.0 °F - 73.9 °F 84% 29.86 in 10.0 mi SW 6.9 mph - N/A   Mostly Cloudy
11:54 PM 79.0 °F - 75.9 °F 90% 29.86 in 7.0 mi SW 10.4 mph - N/A   Clear